IRM67 OIIE-OMDB

Flight info

Callsign IRM67
Flight time 1h 46m
Altitude 37000
Route EGVEL P574 SYZ G666 ORSAR/N0452F250 R784 TATLA L223 VUTEB
Aircraft A346/H-SDE2E3FGHIJ3J4J5M1RWXY/LB1D1

Departure

Time 2026-05-07 23:24
Airport Imam Khomeini International Airport (OIIE)

Arrival

Time 2026-05-08 01:11
Airport Dubai International Airport (OMDB)
Time Latitude Longitude Altitude Speed Heading
2026-05-07 22:53 35.41124 51.15171 3268 ft 0 kts 199°
2026-05-07 23:10 35.41137 51.15176 3263 ft 0 kts 199°
2026-05-07 23:11 35.41162 51.15187 3265 ft 0 kts 199°
2026-05-07 23:11 35.41187 51.15197 3264 ft 0 kts 199°
2026-05-07 23:11 35.41212 51.15207 3264 ft 0 kts 199°
2026-05-07 23:11 35.41219 51.15210 3264 ft 0 kts 199°
2026-05-07 23:15 35.41216 51.15209 3264 ft 1 kts 199°
2026-05-07 23:15 35.41201 51.15203 3264 ft 3 kts 197°
2026-05-07 23:15 35.41189 51.15207 3264 ft 2 kts 142°
2026-05-07 23:16 35.41179 51.15254 3264 ft 8 kts 99°
2026-05-07 23:16 35.41176 51.15332 3265 ft 10 kts 71°
2026-05-07 23:16 35.41236 51.15376 3266 ft 12 kts 21°
2026-05-07 23:16 35.41311 51.15423 3266 ft 13 kts 49°
2026-05-07 23:17 35.41312 51.15534 3262 ft 15 kts 110°
2026-05-07 23:17 35.41273 51.15665 3265 ft 18 kts 109°
2026-05-07 23:17 35.41229 51.15820 3264 ft 20 kts 109°
2026-05-07 23:17 35.41181 51.15993 3262 ft 23 kts 109°
2026-05-07 23:18 35.41127 51.16186 3260 ft 21 kts 109°
2026-05-07 23:18 35.41099 51.16285 3260 ft 12 kts 109°
2026-05-07 23:18 35.41070 51.16391 3258 ft 14 kts 105°
2026-05-07 23:18 35.41107 51.16494 3257 ft 10 kts 25°
2026-05-07 23:19 35.41111 51.16496 3257 ft 0 kts 23°
2026-05-07 23:19 35.41112 51.16496 3257 ft 1 kts 23°
2026-05-07 23:19 35.41170 51.16522 3258 ft 9 kts 18°
2026-05-07 23:20 35.41188 51.16530 3257 ft 0 kts 18°
2026-05-07 23:20 35.41189 51.16530 3257 ft 0 kts 18°
2026-05-07 23:21 35.41242 51.16552 3259 ft 11 kts 18°
2026-05-07 23:21 35.41300 51.16562 3257 ft 7 kts 335°
2026-05-07 23:21 35.41332 51.16514 3258 ft 8 kts 296°
2026-05-07 23:21 35.41342 51.16483 3257 ft 0 kts 289°
2026-05-07 23:22 35.41342 51.16482 3257 ft 0 kts 289°
2026-05-07 23:22 35.41343 51.16480 3257 ft 0 kts 289°
2026-05-07 23:23 35.41344 51.16474 3259 ft 5 kts 289°
2026-05-07 23:23 35.41427 51.16186 3263 ft 70 kts 289°
2026-05-07 23:23 35.41655 51.15370 3269 ft 130 kts 289°
2026-05-07 23:23 35.41999 51.14108 3289 ft 179 kts 290°
2026-05-07 23:24 35.42416 51.12627 3876 ft 182 kts 290°
2026-05-07 23:24 35.42836 51.11143 4566 ft 186 kts 289°
2026-05-07 23:24 35.43242 51.09620 5202 ft 187 kts 288°
2026-05-07 23:24 35.43641 51.08098 5724 ft 190 kts 288°
2026-05-07 23:25 35.44087 51.06513 6068 ft 205 kts 288°
2026-05-07 23:25 35.44557 51.04804 6461 ft 217 kts 287°
2026-05-07 23:25 35.45057 51.02980 6808 ft 233 kts 287°
2026-05-07 23:25 35.45543 51.01033 7184 ft 246 kts 276°
2026-05-07 23:26 35.45333 50.98898 7462 ft 263 kts 244°
2026-05-07 23:26 35.44183 50.97096 7920 ft 278 kts 217°
2026-05-07 23:26 35.42447 50.96043 8733 ft 280 kts 197°
2026-05-07 23:26 35.40518 50.95850 9789 ft 281 kts 176°
2026-05-07 23:27 35.37193 50.98660 10796 ft 334 kts 120°
2026-05-07 23:27 35.36643 51.01539 11072 ft 366 kts 91°
2026-05-07 23:27 35.37210 51.04678 11450 ft 389 kts 71°
2026-05-07 23:28 35.38244 51.07838 11803 ft 410 kts 68°
2026-05-07 23:28 35.39306 51.11135 12459 ft 418 kts 70°
2026-05-07 23:28 35.40271 51.14507 13381 ft 421 kts 73°
2026-05-07 23:28 35.41111 51.17974 14178 ft 426 kts 73°
2026-05-07 23:29 35.42335 51.21302 14965 ft 431 kts 56°
2026-05-07 23:29 35.44418 51.23920 15769 ft 432 kts 34°
2026-05-07 23:29 35.47059 51.25585 16375 ft 436 kts 15°
2026-05-07 23:29 35.50055 51.26084 16912 ft 436 kts 353°
2026-05-07 23:30 35.52984 51.25278 17543 ft 430 kts 332°
2026-05-07 23:30 35.55471 51.23374 18544 ft 415 kts 313°
2026-05-07 23:30 35.57326 51.20713 19212 ft 409 kts 297°
2026-05-07 23:30 35.58441 51.17517 19717 ft 406 kts 279°
2026-05-07 23:31 35.58672 51.14094 20386 ft 400 kts 262°
2026-05-07 23:31 35.58054 51.10788 21103 ft 397 kts 246°
2026-05-07 23:31 35.56646 51.07857 21775 ft 399 kts 231°
2026-05-07 23:31 35.54822 51.05278 22499 ft 401 kts 229°
2026-05-07 23:32 35.52982 51.02688 23176 ft 404 kts 229°
2026-05-07 23:32 35.51127 51.00071 23801 ft 407 kts 229°
2026-05-07 23:32 35.49255 50.97432 24397 ft 409 kts 229°
2026-05-07 23:32 35.47424 50.94852 25014 ft 409 kts 229°
2026-05-07 23:33 35.45556 50.92221 25682 ft 408 kts 229°
2026-05-07 23:33 35.43648 50.89642 26329 ft 409 kts 224°
2026-05-07 23:33 35.41306 50.87637 26899 ft 415 kts 210°
2026-05-07 23:33 35.38563 50.86414 27522 ft 422 kts 199°
2026-05-07 23:34 35.36112 50.85577 28101 ft 418 kts 204°
2026-05-07 23:34 35.33448 50.84196 28731 ft 415 kts 208°
2026-05-07 23:34 35.30805 50.82768 29471 ft 413 kts 208°
2026-05-07 23:34 35.28175 50.81352 30246 ft 408 kts 208°
2026-05-07 23:35 35.25590 50.79946 30736 ft 404 kts 208°
2026-05-07 23:35 35.23033 50.78545 31245 ft 400 kts 208°
2026-05-07 23:35 35.20507 50.77153 31731 ft 397 kts 209°
2026-05-07 23:35 35.17999 50.75764 32177 ft 394 kts 209°
2026-05-07 23:36 35.15507 50.74386 32580 ft 392 kts 209°
2026-05-07 23:36 35.13028 50.73012 32999 ft 390 kts 209°
2026-05-07 23:36 35.10569 50.71649 33433 ft 387 kts 209°
2026-05-07 23:36 35.08123 50.70293 33847 ft 385 kts 209°
2026-05-07 23:37 35.05690 50.68945 34227 ft 383 kts 209°
2026-05-07 23:37 35.03272 50.67607 34536 ft 381 kts 209°
2026-05-07 23:37 35.00850 50.66266 34758 ft 383 kts 210°
2026-05-07 23:37 34.98426 50.64924 34979 ft 383 kts 210°
2026-05-07 23:38 34.96029 50.63596 35255 ft 382 kts 210°
2026-05-07 23:38 34.93611 50.62260 35527 ft 382 kts 210°
2026-05-07 23:38 34.91155 50.60904 35756 ft 382 kts 210°
2026-05-07 23:38 34.88729 50.59565 35952 ft 383 kts 210°
2026-05-07 23:39 34.86329 50.58241 36150 ft 384 kts 210°
2026-05-07 23:39 34.83891 50.56897 36346 ft 385 kts 210°
2026-05-07 23:39 34.81447 50.55564 36531 ft 386 kts 208°
2026-05-07 23:39 34.78896 50.54451 36657 ft 392 kts 204°
2026-05-07 23:40 34.76228 50.53630 36782 ft 399 kts 199°
2026-05-07 23:40 34.73459 50.53110 36921 ft 406 kts 195°
2026-05-07 23:40 34.70613 50.52912 37027 ft 415 kts 190°
2026-05-07 23:40 34.67692 50.53056 37025 ft 426 kts 185°
2026-05-07 23:41 34.64724 50.53576 37034 ft 437 kts 179°
2026-05-07 23:41 34.61736 50.54496 37034 ft 449 kts 174°
2026-05-07 23:41 34.55761 50.56962 37025 ft 456 kts 172°
2026-05-07 23:42 34.49749 50.59517 37045 ft 460 kts 172°
2026-05-07 23:42 34.43711 50.62091 37043 ft 462 kts 172°
2026-05-07 23:43 34.37628 50.64681 37045 ft 464 kts 172°
2026-05-07 23:43 34.31515 50.67281 37061 ft 466 kts 172°
2026-05-07 23:44 34.25377 50.69884 37053 ft 468 kts 172°
2026-05-07 23:44 34.19198 50.72498 37047 ft 471 kts 172°
2026-05-07 23:45 34.13030 50.75117 37290 ft 468 kts 172°
2026-05-07 23:45 34.09971 50.76426 37392 ft 466 kts 172°
2026-05-07 23:45 34.06917 50.77737 37516 ft 466 kts 172°
2026-05-07 23:46 34.03868 50.79051 37700 ft 464 kts 172°
2026-05-07 23:46 34.00831 50.80365 37779 ft 464 kts 172°
2026-05-07 23:46 33.94767 50.82999 37907 ft 464 kts 172°
2026-05-07 23:47 33.88697 50.85647 38006 ft 464 kts 172°
2026-05-07 23:47 33.82632 50.88304 38147 ft 464 kts 172°
2026-05-07 23:48 33.76553 50.90975 38228 ft 465 kts 172°
2026-05-07 23:48 33.70472 50.93656 38282 ft 466 kts 172°
2026-05-07 23:49 33.64369 50.96353 38380 ft 468 kts 172°
2026-05-07 23:49 33.58266 50.99059 38508 ft 468 kts 172°
2026-05-07 23:50 33.52203 51.01758 38596 ft 469 kts 172°
2026-05-07 23:50 33.46085 51.04489 38689 ft 469 kts 172°
2026-05-07 23:51 33.39967 51.07230 38736 ft 470 kts 172°
2026-05-07 23:51 33.33841 51.09985 38814 ft 470 kts 172°
2026-05-07 23:52 33.27717 51.12750 38890 ft 470 kts 172°
2026-05-07 23:52 33.21596 51.15525 38958 ft 470 kts 172°
2026-05-07 23:53 33.16509 51.17840 39000 ft 471 kts 172°
2026-05-07 23:53 33.10396 51.20632 39054 ft 471 kts 172°
2026-05-07 23:54 33.04200 51.23242 37876 ft 473 kts 176°
2026-05-07 23:54 33.01071 51.24313 37502 ft 462 kts 176°
2026-05-07 23:54 32.98004 51.24979 37169 ft 436 kts 186°
2026-05-07 23:55 32.91965 51.25839 37139 ft 446 kts 179°
2026-05-07 23:55 32.85909 51.27927 37148 ft 457 kts 173°
2026-05-07 23:56 32.79894 51.30407 37137 ft 459 kts 173°
2026-05-07 23:56 32.73851 51.32898 37144 ft 460 kts 173°
2026-05-07 23:57 32.67796 51.35378 37149 ft 461 kts 173°
2026-05-07 23:57 32.61723 51.37857 37137 ft 462 kts 173°
2026-05-07 23:58 32.55683 51.40316 37149 ft 462 kts 173°
2026-05-07 23:58 32.49568 51.42802 37151 ft 461 kts 173°
2026-05-07 23:59 32.43534 51.45250 37140 ft 461 kts 173°
2026-05-07 23:59 32.37461 51.47712 37153 ft 461 kts 173°
2026-05-08 00:00 32.31435 51.50152 37156 ft 461 kts 173°
2026-05-08 00:00 32.25368 51.52604 37166 ft 461 kts 173°
2026-05-08 00:01 32.19304 51.55050 37168 ft 461 kts 173°
2026-05-08 00:01 32.13241 51.57494 37139 ft 460 kts 173°
2026-05-08 00:02 32.07162 51.59936 37161 ft 462 kts 173°
2026-05-08 00:02 32.01088 51.62379 37164 ft 461 kts 173°
2026-05-08 00:03 31.95023 51.64814 37177 ft 461 kts 173°
2026-05-08 00:03 31.88948 51.67247 37158 ft 461 kts 173°
2026-05-08 00:04 31.82846 51.69688 37190 ft 464 kts 173°
2026-05-08 00:04 31.76717 51.72140 37200 ft 465 kts 173°
2026-05-08 00:05 31.70591 51.74592 37196 ft 464 kts 172°
2026-05-08 00:05 31.64524 51.77019 37211 ft 464 kts 172°
2026-05-08 00:06 31.58401 51.79463 37224 ft 465 kts 172°
2026-05-08 00:06 31.52282 51.81901 37223 ft 465 kts 172°
2026-05-08 00:07 31.46155 51.84335 37218 ft 465 kts 172°
2026-05-08 00:07 31.40033 51.86765 37231 ft 464 kts 172°
2026-05-08 00:08 31.33907 51.89195 37238 ft 465 kts 172°
2026-05-08 00:08 31.27775 51.91622 37225 ft 465 kts 172°
2026-05-08 00:09 31.21640 51.94050 37227 ft 465 kts 172°
2026-05-08 00:09 31.15500 51.96477 37231 ft 467 kts 172°
2026-05-08 00:10 31.09358 51.98894 37218 ft 465 kts 172°
2026-05-08 00:10 31.03224 52.01311 37232 ft 465 kts 172°
2026-05-08 00:11 30.97094 52.03722 37231 ft 465 kts 172°
2026-05-08 00:11 30.90949 52.06134 37212 ft 467 kts 172°
2026-05-08 00:12 30.84778 52.08552 37225 ft 468 kts 172°
2026-05-08 00:12 30.78599 52.10971 37216 ft 469 kts 172°
2026-05-08 00:13 30.72420 52.13386 37204 ft 468 kts 172°
2026-05-08 00:13 30.66249 52.15793 37213 ft 468 kts 172°
2026-05-08 00:14 30.60069 52.18201 37198 ft 468 kts 172°
2026-05-08 00:14 30.53891 52.20599 37184 ft 468 kts 172°
2026-05-08 00:15 30.47713 52.22992 37187 ft 468 kts 172°
2026-05-08 00:15 30.41533 52.25383 37186 ft 468 kts 172°
2026-05-08 00:16 30.35357 52.27769 37177 ft 468 kts 172°
2026-05-08 00:16 30.29218 52.30138 37173 ft 469 kts 172°
2026-05-08 00:17 30.23024 52.32523 37172 ft 469 kts 172°
2026-05-08 00:17 30.16833 52.34904 37174 ft 469 kts 172°
2026-05-08 00:18 30.10645 52.37281 37148 ft 468 kts 172°
2026-05-08 00:18 30.04692 52.39565 37103 ft 473 kts 172°
2026-05-08 00:19 29.98465 52.41946 37146 ft 477 kts 172°
2026-05-08 00:19 29.92239 52.44338 37133 ft 468 kts 171°
2026-05-08 00:20 29.86056 52.46700 37136 ft 468 kts 171°
2026-05-08 00:20 29.79872 52.49060 37127 ft 468 kts 171°
2026-05-08 00:21 29.73695 52.51412 37101 ft 467 kts 172°
2026-05-08 00:21 29.67512 52.53760 37113 ft 469 kts 171°
2026-05-08 00:22 29.61316 52.56116 37114 ft 469 kts 171°
2026-05-08 00:22 29.55119 52.58453 37113 ft 467 kts 173°
2026-05-08 00:23 29.48872 52.60352 37118 ft 463 kts 175°
2026-05-08 00:23 29.42616 52.62136 37121 ft 464 kts 175°
2026-05-08 00:24 29.36352 52.63921 37110 ft 464 kts 175°
2026-05-08 00:24 29.30090 52.65698 37089 ft 464 kts 175°
2026-05-08 00:25 29.23820 52.67477 37099 ft 464 kts 175°
2026-05-08 00:25 29.17551 52.69254 37101 ft 464 kts 175°
2026-05-08 00:26 29.11271 52.71034 37083 ft 466 kts 176°
2026-05-08 00:26 29.04983 52.72804 37061 ft 465 kts 175°
2026-05-08 00:27 28.98708 52.74577 37066 ft 465 kts 175°
2026-05-08 00:27 28.92422 52.76350 37049 ft 465 kts 175°
2026-05-08 00:28 28.86137 52.78118 37048 ft 465 kts 175°
2026-05-08 00:28 28.79899 52.79873 37038 ft 465 kts 175°
2026-05-08 00:29 28.73622 52.81636 37033 ft 463 kts 175°
2026-05-08 00:29 28.67374 52.83388 36996 ft 463 kts 175°
2026-05-08 00:30 28.61097 52.85143 36986 ft 465 kts 175°
2026-05-08 00:30 28.54812 52.86902 36967 ft 465 kts 175°
2026-05-08 00:31 28.48531 52.88657 36970 ft 465 kts 175°
2026-05-08 00:31 28.42249 52.90407 36951 ft 465 kts 174°
2026-05-08 00:32 28.35972 52.92128 36943 ft 464 kts 175°
2026-05-08 00:32 28.29680 52.93816 36924 ft 464 kts 175°
2026-05-08 00:33 28.23390 52.95501 36923 ft 464 kts 175°
2026-05-08 00:33 28.17165 52.97170 36929 ft 463 kts 175°
2026-05-08 00:34 28.10890 52.98849 36925 ft 463 kts 175°
2026-05-08 00:34 28.04616 53.00526 36927 ft 463 kts 175°
2026-05-08 00:35 27.98342 53.02198 36905 ft 464 kts 175°
2026-05-08 00:35 27.92050 53.03881 36906 ft 464 kts 175°
2026-05-08 00:36 27.85758 53.05560 36897 ft 464 kts 175°
2026-05-08 00:36 27.79475 53.07231 36904 ft 464 kts 174°
2026-05-08 00:37 27.73194 53.08900 36894 ft 463 kts 174°
2026-05-08 00:38 27.63784 53.11400 36888 ft 463 kts 174°
2026-05-08 00:38 27.57505 53.13062 36879 ft 463 kts 174°
2026-05-08 00:39 27.51241 53.14723 36882 ft 462 kts 175°
2026-05-08 00:39 27.44992 53.16370 36874 ft 462 kts 174°
2026-05-08 00:40 27.38726 53.18025 36856 ft 462 kts 174°
2026-05-08 00:40 27.32540 53.19872 36831 ft 465 kts 172°
2026-05-08 00:41 27.26398 53.21762 36839 ft 465 kts 172°
2026-05-08 00:41 27.20110 53.23696 36813 ft 465 kts 172°
2026-05-08 00:42 27.13905 53.25599 36782 ft 465 kts 172°
2026-05-08 00:42 27.07648 53.27514 36801 ft 466 kts 172°
2026-05-08 00:43 27.01392 53.29430 36788 ft 466 kts 172°
2026-05-08 00:43 26.96268 53.30996 36773 ft 466 kts 172°
2026-05-08 00:44 26.90054 53.32941 36765 ft 469 kts 169°
2026-05-08 00:44 26.83885 53.35630 36763 ft 477 kts 161°
2026-05-08 00:45 26.78067 53.39201 36758 ft 484 kts 154°
2026-05-08 00:45 26.72596 53.43694 36755 ft 491 kts 147°
2026-05-08 00:46 26.67378 53.48599 36563 ft 486 kts 146°
2026-05-08 00:46 26.64793 53.51040 35842 ft 488 kts 146°
2026-05-08 00:46 26.62169 53.53506 34892 ft 496 kts 146°
2026-05-08 00:46 26.59512 53.55999 34027 ft 502 kts 146°
2026-05-08 00:47 26.56802 53.58488 33136 ft 505 kts 148°
2026-05-08 00:47 26.53983 53.60830 32272 ft 505 kts 150°
2026-05-08 00:47 26.51103 53.63028 31390 ft 505 kts 151°
2026-05-08 00:47 26.48193 53.65225 29992 ft 507 kts 150°
2026-05-08 00:48 26.45257 53.67432 28392 ft 509 kts 150°
2026-05-08 00:48 26.42345 53.69623 27350 ft 499 kts 149°
2026-05-08 00:48 26.39509 53.71767 27083 ft 489 kts 149°
2026-05-08 00:48 26.36709 53.73882 26666 ft 482 kts 149°
2026-05-08 00:49 26.33954 53.75960 26257 ft 474 kts 149°
2026-05-08 00:49 26.31246 53.78001 25910 ft 465 kts 149°
2026-05-08 00:49 26.28581 53.80007 25465 ft 459 kts 149°
2026-05-08 00:49 26.25956 53.81983 25058 ft 452 kts 148°
2026-05-08 00:50 26.23368 53.83930 24651 ft 446 kts 148°
2026-05-08 00:50 26.20811 53.85851 24270 ft 440 kts 148°
2026-05-08 00:50 26.18294 53.87742 23908 ft 433 kts 148°
2026-05-08 00:50 26.15826 53.89596 23764 ft 421 kts 148°
2026-05-08 00:51 26.13443 53.91386 23765 ft 409 kts 148°
2026-05-08 00:51 26.11091 53.93155 23766 ft 408 kts 147°
2026-05-08 00:51 26.08887 53.95151 23764 ft 410 kts 138°
2026-05-08 00:51 26.06980 53.97514 23763 ft 412 kts 129°
2026-05-08 00:52 26.05412 54.00183 23737 ft 411 kts 121°
2026-05-08 00:52 26.04059 54.02956 23041 ft 405 kts 119°
2026-05-08 00:52 26.02764 54.05721 22101 ft 400 kts 119°
2026-05-08 00:52 26.01487 54.08454 21260 ft 394 kts 119°
2026-05-08 00:53 26.00226 54.11136 20452 ft 388 kts 119°
2026-05-08 00:53 25.98980 54.13767 19658 ft 382 kts 119°
2026-05-08 00:53 25.97748 54.16359 18886 ft 376 kts 120°
2026-05-08 00:53 25.96528 54.18917 18131 ft 371 kts 120°
2026-05-08 00:54 25.95328 54.21430 17377 ft 364 kts 119°
2026-05-08 00:54 25.94144 54.23908 16974 ft 362 kts 119°
2026-05-08 00:54 25.92979 54.26382 16557 ft 360 kts 117°
2026-05-08 00:54 25.91922 54.28901 16161 ft 358 kts 114°
2026-05-08 00:55 25.90994 54.31468 15818 ft 358 kts 111°
2026-05-08 00:55 25.90173 54.34039 15445 ft 355 kts 110°
2026-05-08 00:55 25.89360 54.36622 15080 ft 352 kts 110°
2026-05-08 00:55 25.88554 54.39184 14702 ft 350 kts 110°
2026-05-08 00:56 25.87755 54.41724 14328 ft 347 kts 110°
2026-05-08 00:56 25.86960 54.44253 13970 ft 345 kts 110°
2026-05-08 00:56 25.86171 54.46764 13604 ft 343 kts 110°
2026-05-08 00:56 25.85386 54.49256 13211 ft 341 kts 110°
2026-05-08 00:57 25.84603 54.51739 12803 ft 340 kts 110°
2026-05-08 00:57 25.83822 54.54211 12418 ft 338 kts 110°
2026-05-08 00:57 25.83044 54.56678 12046 ft 337 kts 110°
2026-05-08 00:57 25.82274 54.59116 11630 ft 335 kts 110°
2026-05-08 00:58 25.81539 54.61436 11137 ft 336 kts 109°
2026-05-08 00:58 25.80773 54.63858 10879 ft 332 kts 110°
2026-05-08 00:58 25.79815 54.66190 10730 ft 332 kts 120°
2026-05-08 00:58 25.78465 54.68270 10590 ft 333 kts 131°
2026-05-08 00:59 25.76835 54.70093 10466 ft 333 kts 136°
2026-05-08 00:59 25.75146 54.71858 10335 ft 333 kts 137°
2026-05-08 00:59 25.73454 54.73611 10216 ft 333 kts 137°
2026-05-08 00:59 25.71762 54.75368 10106 ft 333 kts 136°
2026-05-08 01:00 25.70076 54.77123 9997 ft 332 kts 136°
2026-05-08 01:00 25.68391 54.78886 9597 ft 332 kts 136°
2026-05-08 01:00 25.66720 54.80640 9198 ft 329 kts 136°
2026-05-08 01:00 25.65084 54.82355 8837 ft 328 kts 136°
2026-05-08 01:01 25.63403 54.84116 8484 ft 327 kts 137°
2026-05-08 01:01 25.61766 54.85818 8122 ft 326 kts 139°
2026-05-08 01:01 25.59983 54.87418 7779 ft 324 kts 144°
2026-05-08 01:01 25.58214 54.88876 7509 ft 318 kts 145°
2026-05-08 01:02 25.56449 54.90312 7259 ft 311 kts 145°
2026-05-08 01:02 25.54714 54.91717 6958 ft 306 kts 145°
2026-05-08 01:02 25.53008 54.93108 6674 ft 302 kts 145°
2026-05-08 01:02 25.51328 54.94478 6391 ft 298 kts 145°
2026-05-08 01:03 25.49680 54.95821 5928 ft 290 kts 145°
2026-05-08 01:03 25.48090 54.97124 5554 ft 279 kts 143°
2026-05-08 01:03 25.46714 54.98596 5220 ft 274 kts 130°
2026-05-08 01:03 25.45630 55.00324 4916 ft 272 kts 123°
2026-05-08 01:04 25.44658 55.02096 4554 ft 265 kts 123°
2026-05-08 01:04 25.43669 55.03756 4290 ft 252 kts 127°
2026-05-08 01:04 25.42686 55.05306 4052 ft 241 kts 127°
2026-05-08 01:04 25.41734 55.06848 4046 ft 242 kts 126°
2026-05-08 01:05 25.40807 55.08407 4092 ft 243 kts 125°
2026-05-08 01:05 25.39910 55.09964 4072 ft 234 kts 124°
2026-05-08 01:05 25.39078 55.11444 4051 ft 221 kts 124°
2026-05-08 01:05 25.38284 55.12871 3840 ft 215 kts 124°
2026-05-08 01:06 25.37512 55.14268 3642 ft 210 kts 124°
2026-05-08 01:06 25.36757 55.15637 3472 ft 208 kts 124°
2026-05-08 01:06 25.36002 55.17008 3409 ft 209 kts 124°
2026-05-08 01:06 25.35246 55.18380 3377 ft 209 kts 124°
2026-05-08 01:07 25.34487 55.19756 3221 ft 209 kts 123°
2026-05-08 01:07 25.33732 55.21127 2966 ft 208 kts 123°
2026-05-08 01:07 25.32981 55.22492 2714 ft 207 kts 124°
2026-05-08 01:07 25.32230 55.23851 2469 ft 206 kts 123°
2026-05-08 01:08 25.31484 55.25203 2215 ft 205 kts 123°
2026-05-08 01:08 25.30753 55.26529 1948 ft 198 kts 124°
2026-05-08 01:08 25.30052 55.27799 1690 ft 189 kts 123°
2026-05-08 01:08 25.29383 55.29011 1466 ft 179 kts 123°
2026-05-08 01:09 25.28755 55.30147 1226 ft 168 kts 122°
2026-05-08 01:09 25.28152 55.31241 1036 ft 165 kts 122°
2026-05-08 01:09 25.27559 55.32316 880 ft 162 kts 123°
2026-05-08 01:09 25.26983 55.33360 691 ft 157 kts 123°
2026-05-08 01:10 25.26422 55.34375 474 ft 152 kts 123°
2026-05-08 01:10 25.25878 55.35360 281 ft 149 kts 123°
2026-05-08 01:10 25.25338 55.36334 85 ft 148 kts 123°
2026-05-08 01:10 25.24820 55.37266 33 ft 124 kts 123°
2026-05-08 01:11 25.24507 55.37826 32 ft 48 kts 122°
2026-05-08 01:11 25.24396 55.38025 33 ft 28 kts 121°
2026-05-08 01:11 25.24292 55.38212 35 ft 29 kts 121°
2026-05-08 01:11 25.24169 55.38390 34 ft 29 kts 144°
2026-05-08 01:12 25.24046 55.38470 32 ft 16 kts 163°
2026-05-08 01:12 25.23978 55.38440 30 ft 6 kts 269°
2026-05-08 01:12 25.23988 55.38397 29 ft 10 kts 290°
2026-05-08 01:12 25.24053 55.38273 30 ft 26 kts 301°
2026-05-08 01:13 25.24133 55.38130 30 ft 21 kts 302°
2026-05-08 01:13 25.24208 55.37997 30 ft 17 kts 302°
2026-05-08 01:13 25.24260 55.37905 30 ft 10 kts 302°
2026-05-08 01:13 25.24301 55.37833 30 ft 21 kts 302°
2026-05-08 01:14 25.24405 55.37650 30 ft 30 kts 302°
2026-05-08 01:14 25.24518 55.37452 30 ft 28 kts 302°
2026-05-08 01:14 25.24603 55.37300 30 ft 20 kts 302°
2026-05-08 01:14 25.24664 55.37192 30 ft 13 kts 302°
2026-05-08 01:15 25.24687 55.37149 30 ft 0 kts 302°
2026-05-08 01:15 25.24704 55.37120 30 ft 17 kts 302°
2026-05-08 01:15 25.24776 55.36990 30 ft 22 kts 302°
2026-05-08 01:15 25.24847 55.36833 30 ft 24 kts 287°
2026-05-08 01:16 25.24904 55.36647 30 ft 27 kts 298°
2026-05-08 01:16 25.25002 55.36463 30 ft 29 kts 301°
2026-05-08 01:16 25.25111 55.36270 30 ft 30 kts 303°
2026-05-08 01:16 25.25229 55.36069 30 ft 32 kts 302°
2026-05-08 01:17 25.25348 55.35857 30 ft 33 kts 302°
2026-05-08 01:17 25.25470 55.35636 30 ft 34 kts 301°
2026-05-08 01:17 25.25596 55.35409 30 ft 35 kts 302°
2026-05-08 01:17 25.25725 55.35179 30 ft 32 kts 302°
2026-05-08 01:18 25.25801 55.35043 30 ft 20 kts 302°
2026-05-08 01:18 25.25858 55.34891 30 ft 23 kts 272°
2026-05-08 01:18 25.25879 55.34719 30 ft 17 kts 298°
2026-05-08 01:18 25.25914 55.34637 30 ft 7 kts 276°
2026-05-08 01:19 25.25887 55.34597 30 ft 8 kts 210°
2026-05-08 01:19 25.25860 55.34580 30 ft 2 kts 210°
2026-05-08 01:19 25.25852 55.34575 30 ft 0 kts 210°